When you browse on this site, cookies collect data to enhance your experience and personalize the content and advertising you see.
Visit our Privacy Policy to learn more. By continuing to use the site, you agree to this use of cookies and data.
  • In Latvia
  • List of Countries
  • For 7 days
  • Water Temperature
  • Satellite Maps
  • Weather Map
  • Weather Widgets
  • user-avatar
    Login

    Hourly Weather Mazari Sharif

    Today, 22 February, Friday

    Time Temperature Precipitation Wind Pressure Humidity
    00:00 -2°C° 0 mm 2 mps 658 mmHg 68%
    01:00 -2°C° 0 mm 2 mps 658 mmHg 66%
    02:00 -2°C° 0 mm 2 mps 657 mmHg 62%
    03:00 -2°C° 0 mm 2 mps 657 mmHg 58%
    04:00 -2°C° 0 mm 2 mps 656 mmHg 52%
    05:00 -2°C° 0 mm 2 mps 657 mmHg 49%
    06:00 -2°C° 0 mm 2 mps 657 mmHg 46%
    07:00 -2°C° 0 mm 2 mps 657 mmHg 43%
    08:00 +2°C° 0 mm 1 mps 657 mmHg 41%
    09:00 +4°C° 0 mm 1 mps 657 mmHg 39%
    10:00 +6°C° 0 mm 1 mps 657 mmHg 38%
    11:00 +7°C° 0 mm 1 mps 657 mmHg 36%
    12:00 +8°C° 0 mm 1 mps 657 mmHg 35%
    13:00 +8°C° 0 mm 1 mps 656 mmHg 33%
    14:00 +8°C° 0 mm 1 mps 656 mmHg 33%
    15:00 +8°C° 0 mm 1 mps 656 mmHg 32%
    16:00 +7°C° 0 mm 2 mps 655 mmHg 32%
    17:00 +6°C° 0 mm 1 mps 656 mmHg 36%
    18:00 +5°C° 0 mm 1 mps 656 mmHg 39%
    19:00 +4°C° 0 mm 1 mps 656 mmHg 42%
    20:00 +4°C° 0 mm 1 mps 656 mmHg 41%
    21:00 +3°C° 0 mm 2 mps 656 mmHg 40%
    22:00 +2°C° 0 mm 2 mps 656 mmHg 39%
    23:00 +2°C° 0 mm 2 mps 656 mmHg 39%

    Tomorrow, 23 February, Saturday

    Time Temperature Precipitation Wind Pressure Humidity
    00:00 +2°C° 0 mm 2 mps 656 mmHg 39%
    01:00 +2°C° 0 mm 2 mps 656 mmHg 39%
    02:00 +2°C° 0 mm 2 mps 656 mmHg 38%
    03:00 +2°C° 0 mm 2 mps 656 mmHg 38%
    04:00 +1°C° 0 mm 2 mps 655 mmHg 37%
    05:00 +2°C° 0 mm 2 mps 656 mmHg 36%
    06:00 +2°C° 0 mm 2 mps 656 mmHg 34%
    07:00 +2°C° 0 mm 2 mps 656 mmHg 33%
    08:00 +5°C° 0 mm 1 mps 656 mmHg 33%
    09:00 +7°C° 0 mm 1 mps 656 mmHg 33%
    10:00 +8°C° 0 mm 1 mps 657 mmHg 33%
    11:00 +9°C° 0 mm 1 mps 656 mmHg 32%
    12:00 +9°C° 0 mm 1 mps 656 mmHg 31%
    13:00 +10°C° 0 mm 1 mps 656 mmHg 29%
    14:00 +10°C° 0 mm 1 mps 656 mmHg 29%
    15:00 +9°C° 0 mm 1 mps 655 mmHg 28%
    16:00 +9°C° 0 mm 1 mps 655 mmHg 27%
    17:00 +8°C° 0 mm 1 mps 655 mmHg 29%
    18:00 +7°C° 0 mm 1 mps 655 mmHg 32%
    19:00 +6°C° 0 mm 1 mps 656 mmHg 34%
    20:00 +6°C° 0 mm 1 mps 656 mmHg 34%
    21:00 +6°C° 0 mm 1 mps 656 mmHg 33%
    22:00 +5°C° 0 mm 1 mps 656 mmHg 33%
    23:00 +5°C° 0 mm 1 mps 656 mmHg 34%

    Day after tomorrow, 24 February, Sunday

    Time Temperature Precipitation Wind Pressure Humidity
    00:00 +5°C° 0 mm 1 mps 656 mmHg 35%
    01:00 +4°C° 0 mm 1 mps 656 mmHg 36%
    02:00 +4°C° 0 mm 1 mps 655 mmHg 37%
    03:00 +4°C° 0 mm 1 mps 655 mmHg 38%
    04:00 +4°C° 0 mm 1 mps 655 mmHg 39%
    05:00 +4°C° 0 mm 1 mps 656 mmHg 39%
    06:00 +4°C° 0 mm 1 mps 656 mmHg 40%
    07:00 +4°C° 0 mm 1 mps 656 mmHg 40%
    08:00 +5°C° 0 mm 1 mps 656 mmHg 38%
    09:00 +6°C° 0 mm 1 mps 657 mmHg 36%
    10:00 +6°C° 0 mm 0 mps 657 mmHg 33%
    11:00 +7°C° 0 mm 1 mps 657 mmHg 34%
    12:00 +8°C° 0 mm 1 mps 656 mmHg 34%
    13:00 +8°C° 0 mm 1 mps 656 mmHg 35%
    14:00 +8°C° 0 mm 1 mps 656 mmHg 35%
    15:00 +8°C° 0 mm 1 mps 656 mmHg 34%
    16:00 +8°C° 0 mm 1 mps 655 mmHg 34%
    17:00 +7°C° 0 mm 1 mps 656 mmHg 36%
    18:00 +6°C° 0 mm 1 mps 656 mmHg 38%
    19:00 +6°C° 0 mm 1 mps 656 mmHg 41%
    20:00 +5°C° 0 mm 1 mps 656 mmHg 42%
    21:00 +5°C° 0 mm 1 mps 656 mmHg 42%
    22:00 +4°C° 0 mm 1 mps 656 mmHg 43%
    23:00 +4°C° 0 mm 1 mps 656 mmHg 44%

    25 February, Monday

    Time Temperature Precipitation Wind Pressure Humidity
    00:00 +4°C° 0 mm 1 mps 656 mmHg 45%
    01:00 +3°C° 0 mm 1 mps 656 mmHg 45%
    02:00 +3°C° 0 mm 1 mps 656 mmHg 46%
    03:00 +3°C° 0 mm 1 mps 655 mmHg 46%
    04:00 +2°C° 0 mm 1 mps 655 mmHg 47%
    05:00 +2°C° 0 mm 1 mps 655 mmHg 47%
    06:00 +3°C° 0 mm 1 mps 656 mmHg 47%
    07:00 +3°C° 0 mm 1 mps 656 mmHg 48%
    08:00 +4°C° 0 mm 1 mps 656 mmHg 45%
    09:00 +4°C° 0 mm 0 mps 656 mmHg 42%
    10:00 +5°C° 0 mm 0 mps 656 mmHg 39%
    11:00 +6°C° 0 mm 1 mps 655 mmHg 38%
    12:00 +7°C° 0 mm 1 mps 655 mmHg 38%
    13:00 +6°C° 0 mm 2 mps 654 mmHg 38%
    14:00 +6°C° 0 mm 2 mps 654 mmHg 38%
    15:00 +6°C° 0 mm 2 mps 654 mmHg 37%
    16:00 +6°C° 0 mm 2 mps 654 mmHg 37%
    17:00 +6°C° 0 mm 1 mps 654 mmHg 41%
    18:00 +6°C° 0 mm 1 mps 654 mmHg 44%
    19:00 +5°C° 0 mm 1 mps 654 mmHg 47%
    20:00 +4°C° 0 mm 1 mps 654 mmHg 48%
    21:00 +4°C° 0 mm 1 mps 654 mmHg 49%
    22:00 +4°C° 0 mm 1 mps 654 mmHg 50%
    23:00 +3°C° 0 mm 1 mps 654 mmHg 51%

    26 February, Tuesday

    Time Temperature Precipitation Wind Pressure Humidity
    00:00 +3°C° 0 mm 1 mps 654 mmHg 51%
    01:00 +2°C° 0 mm 1 mps 654 mmHg 52%
    02:00 +2°C° 0 mm 1 mps 653 mmHg 52%
    03:00 +2°C° 0 mm 1 mps 653 mmHg 52%
    04:00 +2°C° 0 mm 1 mps 653 mmHg 53%
    05:00 +2°C° 0 mm 1 mps 654 mmHg 52%
    06:00 +2°C° 0 mm 1 mps 654 mmHg 51%
    07:00 +2°C° 0 mm 1 mps 654 mmHg 50%
    08:00 +3°C° 0 mm 1 mps 655 mmHg 48%
    09:00 +4°C° 0 mm 1 mps 655 mmHg 45%
    10:00 +5°C° 0 mm 1 mps 655 mmHg 43%
    11:00 +6°C° 0 mm 1 mps 654 mmHg 42%
    12:00 +6°C° 0 mm 1 mps 654 mmHg 42%
    13:00 +6°C° 0 mm 1 mps 654 mmHg 42%
    14:00 +6°C° 0 mm 1 mps 654 mmHg 42%
    15:00 +6°C° 0 mm 1 mps 653 mmHg 42%
    16:00 +6°C° 0 mm 1 mps 653 mmHg 42%
    17:00 +6°C° 0 mm 1 mps 653 mmHg 45%
    18:00 +5°C° 0 mm 1 mps 653 mmHg 47%
    19:00 +5°C° 0 mm 1 mps 654 mmHg 50%
    20:00 +4°C° 0 mm 1 mps 653 mmHg 50%
    21:00 +4°C° 0 mm 1 mps 653 mmHg 51%
    22:00 +2°C° 0 mm 2 mps 653 mmHg 52%
    23:00 +2°C° 0 mm 2 mps 652 mmHg 52%

    27 February, Wednesday

    Time Temperature Precipitation Wind Pressure Humidity
    00:00 +2°C° 0 mm 2 mps 652 mmHg 52%
    01:00 +2°C° 0 mm 2 mps 652 mmHg 52%
    02:00 +1°C° 0 mm 2 mps 651 mmHg 51%
    03:00 +1°C° 0 mm 2 mps 651 mmHg 50%
    04:00 +1°C° 0 mm 2 mps 650 mmHg 50%
    05:00 +1°C° 0 mm 2 mps 651 mmHg 47%
    06:00 +2°C° 0 mm 2 mps 651 mmHg 44%
    07:00 +2°C° 0 mm 2 mps 651 mmHg 42%
    08:00 +3°C° 0 mm 3 mps 651 mmHg 36%
    09:00 +5°C° 0 mm 3 mps 651 mmHg 30%
    10:00 +7°C° 0 mm 3 mps 651 mmHg 24%
    11:00 +9°C° 0 mm 3 mps 650 mmHg 22%
    12:00 +10°C° 0 mm 3 mps 649 mmHg 21%
    13:00 +11°C° 0 mm 4 mps 649 mmHg 19%
    14:00 +11°C° 0 mm 4 mps 648 mmHg 20%
    15:00 +11°C° 0 mm 4 mps 648 mmHg 22%
    16:00 +10°C° 0 mm 4 mps 647 mmHg 23%
    17:00 +8°C° 0 mm 4 mps 647 mmHg 27%
    18:00 +7°C° 0 mm 4 mps 647 mmHg 30%
    19:00 +6°C° 0 mm 4 mps 647 mmHg 34%
    20:00 +6°C° 0 mm 4 mps 647 mmHg 33%
    21:00 +7°C° 0 mm 3 mps 647 mmHg 33%
    22:00 +7°C° 0 mm 3 mps 646 mmHg 33%
    23:00 +7°C° 0.1 mm 3 mps 646 mmHg 34%
    Show more